"2010-07-31 00:00:00",29101,10.8,113.9,1.022,0.315,19.86,108.5876,21.27,22.18,54.32,0,111,13.16,22.09,75.9
"2010-07-31 00:00:30",29102,10.9,114.8,1.232,0.151,19.97,108.5825,21.25,22.17,53.84,0,111,13.16,22.08,76.8
"2010-07-31 00:01:00",29103,10.18,115.2,1.446,0.168,19.97,108.5758,21.24,22.18,54.06,0,111,13.16,22.06,77.2
"2010-07-31 00:01:30",29104,10.32,115.7,1.099,0.376,20.02,108.5613,21.2,22.17,54.22,0,111,13.16,22.03,77.7
"2010-07-31 00:02:00",29105,10.78,116.8,1.436,0.317,20.13,108.5587,21.19,22.14,53.22,0,111,13.16,22.02,78.8
"2010-07-31 00:02:30",29106,10.4,115.5,1.489,0.321,20.08,108.5579,21.19,22.13,53.31,0,111,13.16,22.02,77.5
"2010-07-31 00:03:00",29107,10.64,113.8,1.385,0.154,20.53,108.5385,21.14,22.11,51.92,0,111,13.16,21.97,75.8
"2010-07-31 00:03:30",29108,10.77,113.9,0.752,0.087,20.48,108.5367,21.14,22.1,51.93,0,111,13.16,21.96,75.9
"2010-07-31 00:04:00",29109,10.66,112.7,0.876,0.148,20.53,108.5364,21.14,22.09,50.47,0,111,13.16,21.96,74.7
"2010-07-31 00:04:30",29110,10.73,115.3,1.179,0.209,20.47,108.5489,21.17,22.08,49.24,0,111,13.16,21.99,77.3
"2010-07-31 00:05:00",29111,10.6,112.5,0.724,0.173,20.6,108.5619,21.2,22.07,49.07,0,111,13.16,22.03,74.5
"2010-07-31 00:05:30",29112,11.08,112.5,0.562,0.089,20.54,108.5654,21.21,22.1,48.2,0,111,13.16,22.04,74.5
"2010-07-31 00:06:00",29113,11.31,113,0.877,0.113,20.59,108.5666,21.21,22.1,47.81,0,111,13.17,22.04,75.0
"2010-07-31 00:06:30",29114,11.28,110.8,0.972,0.168,20.92,108.5871,21.27,22.12,46.7,0,111,13.17,22.09,72.8
"2010-07-31 00:07:00",29115,11.07,110,0.77,0.107,20.8,108.6003,21.3,22.13,46.7,0,111,13.17,22.13,72.0
"2010-07-31 00:07:30",29116,10.72,109.1,0.538,0.109,20.81,108.6107,21.33,22.15,46.85,0,111,13.17,22.15,71.1
"2010-07-31 00:08:00",29117,10.75,108.5,0.321,0.094,20.88,108.6312,21.38,22.19,46.93,0,111,13.17,22.21,70.5
"2010-07-31 00:08:30",29118,10.4,109.3,0.523,0.118,20.89,108.6374,21.4,22.23,46.72,0,111,13.17,22.22,71.3
"2010-07-31 00:09:00",29119,10.08,110.4,1.041,0.147,20.85,108.6602,21.45,22.26,46.56,0,111,13.17,22.28,72.4
"2010-07-31 00:09:30",29120,10.07,109.8,0.767,0.215,20.95,108.6686,21.48,22.3,46.56,0,111,13.17,22.30,71.8
"2010-07-31 00:10:00",29121,10.26,111.5,0.601,0.102,20.92,108.6886,21.53,22.35,46.56,0,111,13.17,22.35,73.5
"2010-07-31 00:10:30",29122,10.37,111.7,0.49,0.121,20.94,108.7015,21.56,22.38,46.18,0,111,13.17,22.39,73.7
"2010-07-31 00:11:00",29123,10.46,112.3,0.581,0.09,20.79,108.7099,21.58,22.41,46.11,0,111,13.17,22.41,74.3
"2010-07-31 00:11:30",29124,10.33,112.1,0.828,0.096,20.75,108.7277,21.63,22.44,46.01,0,111,13.17,22.45,74.1
"2010-07-31 00:12:00",29125,10.53,112,0.696,0.08,20.86,108.7352,21.65,22.46,45.82,0,111,13.17,22.47,74.0
"2010-07-31 00:12:30",29126,10.52,112.1,0.42,0.181,20.91,108.7352,21.65,22.49,45.67,0,111,13.17,22.47,74.1
"2010-07-31 00:13:00",29127,10.36,112.7,0.451,0.067,21.08,108.7411,21.66,22.51,45.55,0,111,13.17,22.49,74.7
"2010-07-31 00:13:30",29128,10.16,111.6,0.59,0.218,21.07,108.7631,21.72,22.53,45.37,0,111,13.17,22.55,73.6
"2010-07-31 00:14:00",29129,9.87,112,0.486,0.205,21.09,108.769,21.73,22.57,45.33,0,111,13.17,22.56,74.0
"2010-07-31 00:14:30",29130,9.7,110.4,1.367,0.163,21.13,108.7808,21.76,22.59,45.24,0,110.9,13.17,22.59,72.4
"2010-07-31 00:15:00",29131,10.28,110.3,1.015,0.152,21.36,108.8027,21.82,22.63,45.25,0,111,13.17,22.65,72.3
"2010-07-31 00:15:30",29132,9.79,111.6,0.478,0.166,21.17,108.8114,21.84,22.67,45.11,0,111,13.17,22.67,73.6
"2010-07-31 00:16:00",29133,9.81,111.9,0.298,0.108,21.26,108.8347,21.9,22.71,45.13,0,111,13.17,22.73,73.9
"2010-07-31 00:16:30",29134,9.96,111.5,0.474,0.086,21.37,108.8392,21.91,22.73,45.01,0,111,13.17,22.74,73.5
"2010-07-31 00:17:00",29135,9.84,111.3,0.535,0.064,21.23,108.8631,21.97,22.78,44.69,0,111,13.17,22.80,73.3
"2010-07-31 00:17:30",29136,9.64,110.7,0.915,0.111,21.17,108.8701,21.99,22.82,44.27,0,111,13.17,22.82,72.7
"2010-07-31 00:18:00",29137,9.56,111.4,0.674,0.093,21.11,108.88,22.02,22.86,44.02,0,111,13.17,22.85,73.4
"2010-07-31 00:18:30",29138,9.39,112,0.601,0.134,21.18,108.8991,22.07,22.9,43.64,0,111,13.17,22.90,74.0
"2010-07-31 00:19:00",29139,9.32,111.7,0.608,0.141,21.23,108.9042,22.08,22.93,42.8,0,111,13.17,22.91,73.7
"2010-07-31 00:19:30",29140,9.58,110.4,0.829,0.079,21.48,108.9106,22.1,22.95,42.71,0,111,13.16,22.93,72.4
"2010-07-31 00:20:00",29141,9.4,111.5,0.56,0.092,21.41,108.9329,22.15,22.99,42.26,0,110.9,13.17,22.98,73.5
"2010-07-31 00:20:30",29142,9.2,111.3,0.859,0.104,21.29,108.944,22.18,23.02,41.79,0,111,13.17,23.01,73.3
"2010-07-31 00:21:00",29143,9.2,110.1,0.697,0.084,21.39,108.9678,22.24,23.06,41.63,0,110.9,13.17,23.07,72.1
"2010-07-31 00:21:30",29144,9.09,110.9,0.638,0.088,21.34,108.9758,22.26,23.1,41.26,0,111,13.17,23.09,72.9
"2010-07-31 00:22:00",29145,9.23,113,0.914,0.099,21.17,108.9899,22.3,23.12,40.74,0,110.9,13.17,23.13,75.0
"2010-07-31 00:22:30",29146,9.61,113.1,0.763,0.118,21.17,109.0078,22.35,23.16,41.02,0,111,13.17,23.18,75.1
"2010-07-31 00:23:00",29147,9.58,114.3,0.87,0.105,20.96,109.0097,22.35,23.21,43.96,0,111,13.17,23.18,76.3
"2010-07-31 00:23:30",29148,9.82,113.2,0.781,0.119,21,109.0115,22.36,23.23,43.06,0,111,13.17,23.19,75.2
"2010-07-31 00:24:00",29149,9.98,111.4,1.328,0.106,21.06,109.0118,22.36,23.23,42.77,0,111,13.17,23.19,73.4
"2010-07-31 00:24:30",29150,9.91,111,1.062,0.101,21.04,109.0103,22.35,23.22,42.53,0,111,13.17,23.18,73.0
"2010-07-31 00:25:00",29151,9.99,114.3,1.676,0.273,20.87,109.0051,22.34,23.24,43.43,0,111,13.17,23.17,76.3
"2010-07-31 00:25:30",29152,10.32,116.5,1.308,0.127,20.87,108.9875,22.29,23.25,44.13,0,111,13.18,23.12,78.5
"2010-07-31 00:26:00",29153,9.95,118.4,0.713,0.09,20.76,108.9823,22.28,23.22,44.94,0,111,13.18,23.11,80.4
"2010-07-31 00:26:30",29154,9.38,119.3,1.406,0.398,20.51,108.9756,22.26,23.21,45.35,0,111,13.18,23.09,81.3
"2010-07-31 00:27:00",29155,8.48,121.7,2.261,0.507,20.25,108.9451,22.19,23.2,45.72,0,111,13.18,23.01,83.7
"2010-07-31 00:27:30",29156,7.887,122.5,1.903,0.433,20.14,108.9151,22.11,23.14,46.25,0,111,13.18,22.94,84.5
"2010-07-31 00:28:00",29157,6.865,120,2.313,0.299,19.89,108.8664,21.98,23.06,47.21,0,110.9,13.18,22.81,82.0
"2010-07-31 00:28:30",29158,7.102,121.9,2.315,0.471,20.04,108.8031,21.82,22.94,47.72,0,110.9,13.18,22.65,83.9
"2010-07-31 00:29:00",29159,6.648,122,5.384,0.454,19.94,108.74,21.66,22.81,48.05,0,111,13.18,22.49,84.0
"2010-07-31 00:29:30",29160,5.905,120.9,2.836,0.271,19.76,108.674,21.49,22.67,49.5,0,110.9,13.18,22.32,82.9
"2010-07-31 00:30:00",29161,6.334,121.9,5.099,0.681,20.12,108.6033,21.31,22.54,49.42,0,111,13.18,22.13,83.9
"2010-07-31 00:30:30",29162,7.066,123.8,2.022,0.297,20.29,108.5601,21.2,22.39,49.04,0,110.9,13.18,22.02,85.8
"2010-07-31 00:31:00",29163,6.532,125.1,1.147,0.391,20.3,108.539,21.14,22.29,48.96,0,110.9,13.18,21.97,87.1
"2010-07-31 00:31:30",29164,5.635,128.2,3.017,0.255,19.8,108.5064,21.06,22.22,50.07,0,110.9,13.18,21.88,90.2
"2010-07-31 00:32:00",29165,5.841,128.1,2.459,0.33,19.97,108.4651,20.95,22.12,50.48,0,110.9,13.18,21.78,90.1
"2010-07-31 00:32:30",29166,6.03,126.4,2.175,0.234,20.13,108.4379,20.88,22.05,50.51,0,110.9,13.18,21.71,88.4
"2010-07-31 00:33:00",29167,6.022,129.3,1.961,0.139,20.11,108.4172,20.83,21.97,50.63,0,110.9,13.18,21.65,91.3
"2010-07-31 00:33:30",29168,6.072,129.1,1.654,0.193,20.18,108.4077,20.81,21.9,50.65,0,110.9,13.18,21.63,91.1
"2010-07-31 00:34:00",29169,5.946,129.7,1.37,0.312,20.15,108.3925,20.77,21.84,50.6,0,110.9,13.17,21.59,91.7
"2010-07-31 00:34:30",29170,6.181,130.4,1.857,0.33,20.22,108.3889,20.76,21.81,50.52,0,110.9,13.17,21.58,92.4
"2010-07-31 00:35:00",29171,6.012,131.7,3.971,0.299,20.17,108.3901,20.76,21.77,50.85,0,110.9,13.17,21.59,93.7
"2010-07-31 00:35:30",29172,5.241,134.8,3.474,0.33,20.08,108.3893,20.76,21.74,51.44,0,110.9,13.17,21.58,96.8
"2010-07-31 00:36:00",29173,4.935,134.3,2.753,0.302,20.02,108.3692,20.71,21.71,51.77,0,110.9,13.17,21.53,96.3
"2010-07-31 00:36:30",29174,5.541,133.4,4.619,0.243,20.18,108.3576,20.68,21.67,51.46,0,110.9,13.17,21.50,95.4
"2010-07-31 00:37:00",29175,5.227,129,2.471,0.197,20.06,108.3579,20.68,21.67,51.75,0,110.9,13.17,21.50,91.0
"2010-07-31 00:37:30",29176,4.768,128.5,4.097,0.342,20.09,108.3571,20.68,21.62,52.11,0,110.9,13.17,21.50,90.5
"2010-07-31 00:38:00",29177,4.687,127.8,3.236,0.327,20.2,108.3523,20.66,21.62,51.49,0,110.9,13.17,21.49,89.8
"2010-07-31 00:38:30",29178,4.583,126.3,2.713,0.187,20.17,108.3499,20.66,21.6,51.43,0,110.9,13.18,21.48,88.3
"2010-07-31 00:39:00",29179,4.354,127.3,3.076,0.204,20.01,108.3398,20.63,21.59,51.84,0,110.9,13.18,21.46,89.3
"2010-07-31 00:39:30",29180,4.716,127.8,2.775,0.404,20.1,108.3308,20.61,21.58,51.94,0,110.9,13.18,21.43,89.8
"2010-07-31 00:40:00",29181,4.526,131.8,3.093,0.321,20.1,108.3291,20.6,21.56,52,0,110.9,13.19,21.43,93.8
"2010-07-31 00:40:30",29182,3.87,131.9,3.864,0.238,20.11,108.3318,20.61,21.55,51.99,0,110.9,13.19,21.43,93.9
"2010-07-31 00:41:00",29183,4.254,134.3,4.07,0.315,20.26,108.3327,20.61,21.54,51.56,0,110.9,13.19,21.44,96.3
"2010-07-31 00:41:30",29184,4.155,132.1,2.294,0.232,20.23,108.3369,20.62,21.54,51.48,0,110.9,13.19,21.45,94.1
"2010-07-31 00:42:00",29185,4.345,134.3,1.926,0.259,20.37,108.3552,20.67,21.55,50.94,0,110.9,13.19,21.50,96.3
"2010-07-31 00:42:30",29186,4.878,133.7,1.732,0.131,20.43,108.3668,20.7,21.56,50.51,0,110.9,13.19,21.53,95.7
"2010-07-31 00:43:00",29187,4.788,131.5,1.504,0.131,20.51,108.3822,20.74,21.58,49.8,0,110.9,13.19,21.56,93.5
"2010-07-31 00:43:30",29188,5.284,131.6,0.863,0.133,20.59,108.4033,20.79,21.6,49.7,0,110.9,13.19,21.62,93.6
"2010-07-31 00:44:00",29189,5.39,130.1,1.704,0.186,20.78,108.4289,20.86,21.66,49.53,0,110.9,13.19,21.68,92.1
"2010-07-31 00:44:30",29190,5.217,127,1.799,0.102,20.85,108.459,20.94,21.7,48.54,0,110.9,13.19,21.76,89.0
"2010-07-31 00:45:00",29191,5.104,126.5,1.303,0.109,20.69,108.4916,21.02,21.77,48.65,0,110.9,13.19,21.85,88.5
"2010-07-31 00:45:30",29192,4.97,124.8,1.156,0.114,20.74,108.5183,21.09,21.82,48.12,0,110.9,13.19,21.92,86.8
"2010-07-31 00:46:00",29193,4.99,127.6,3.028,0.135,20.67,108.5428,21.15,21.87,47.66,0,110.9,13.19,21.98,89.6
"2010-07-31 00:46:30",29194,5.094,129.4,1.968,0.096,20.56,108.5678,21.22,21.91,47.93,0,110.9,13.19,22.04,91.4
"2010-07-31 00:47:00",29195,5.156,131.5,1.355,0.147,20.5,108.5698,21.22,21.98,48.03,0,110.9,13.19,22.05,93.5
"2010-07-31 00:47:30",29196,5.395,135.4,1.006,0.128,20.35,108.5698,21.22,22,48.28,0,110.9,13.19,22.05,97.4
"2010-07-31 00:48:00",29197,5.081,137.9,2.011,0.245,20.3,108.5695,21.22,22.03,48.55,0,110.9,13.19,22.05,99.9
"2010-07-31 00:48:30",29198,5.04,135.3,3.533,0.301,20.38,108.5695,21.22,22.04,48.46,0,110.9,13.19,22.05,97.3
"2010-07-31 00:49:00",29199,5.364,133,1.187,0.143,20.57,108.5684,21.22,22.04,47.37,0,110.9,13.19,22.04,95.0
"2010-07-31 00:49:30",29200,5.324,133.1,2.371,0.114,20.58,108.5695,21.22,22.06,47.27,0,110.9,13.19,22.05,95.1
"2010-07-31 00:50:00",29201,5.203,136,2.542,0.216,20.54,108.5703,21.22,22.07,47.14,0,110.9,13.19,22.05,98.0
"2010-07-31 00:50:30",29202,5.352,138.2,1.445,0.117,20.59,108.5748,21.23,22.08,46.91,0,110.9,13.19,22.06,100.2
"2010-07-31 00:51:00",29203,5.259,139.2,2.263,0.092,20.53,108.5906,21.28,22.1,46.54,0,110.9,13.19,22.10,101.2
"2010-07-31 00:51:30",29204,5.418,138.8,1.503,0.161,20.59,108.6032,21.31,22.12,46.39,0,110.9,13.19,22.13,100.8
"2010-07-31 00:52:00",29205,5.546,139.4,1.359,0.072,20.71,108.6032,21.31,22.15,46.18,0,110.9,13.19,22.13,101.4
"2010-07-31 00:52:30",29206,5.481,139.1,1.425,0.128,20.82,108.6122,21.33,22.16,45.93,0,110.9,13.19,22.16,101.1
"2010-07-31 00:53:00",29207,4.957,138.8,0.544,0.227,21.08,108.6378,21.4,22.2,45.34,0,110.9,13.19,22.22,100.8
"2010-07-31 00:53:30",29208,4.566,141.4,0.587,0.122,20.97,108.6679,21.47,22.25,45.06,0,110.9,13.19,22.30,103.4
"2010-07-31 00:54:00",29209,4.589,141,0.714,0.111,20.88,108.6946,21.54,22.32,45.24,0,110.9,13.19,22.37,103.0
"2010-07-31 00:54:30",29210,4.88,141.7,1.129,0.139,20.79,108.705,21.57,22.35,45.16,0,110.9,13.18,22.40,103.7
"2010-07-31 00:55:00",29211,4.751,142.9,1.145,0.111,20.86,108.7107,21.58,22.38,44.78,0,110.9,13.19,22.41,104.9
"2010-07-31 00:55:30",29212,4.787,143.6,1.32,0.122,20.77,108.7357,21.65,22.42,44.51,0,110.9,13.19,22.48,105.6
"2010-07-31 00:56:00",29213,4.831,144.5,1.412,0.082,20.83,108.7385,21.65,22.46,44.2,0,110.9,13.19,22.48,106.5
"2010-07-31 00:56:30",29214,5.001,149.5,2.906,0.181,20.68,108.7444,21.67,22.48,44.4,0,110.9,13.19,22.50,111.5
"2010-07-31 00:57:00",29215,5.131,151.9,4.797,0.249,20.52,108.7476,21.68,22.5,45.07,0,110.9,13.19,22.51,113.9
"2010-07-31 00:57:30",29216,4.678,163.3,4.579,0.326,20.36,108.7385,21.65,22.51,45.83,0,110.9,13.19,22.48,125.3
"2010-07-31 00:58:00",29217,4.722,158,1.388,0.298,20.5,108.7219,21.61,22.5,45.47,0,110.9,13.19,22.44,120.0
"2010-07-31 00:58:30",29218,4.371,167.7,5.006,0.513,20.27,108.7071,21.57,22.48,46.34,0,110.9,13.19,22.40,129.7
"2010-07-31 00:59:00",29219,3.975,168.2,4.825,0.354,20.31,108.6783,21.5,22.44,46.84,0,110.9,13.19,22.33,130.2
"2010-07-31 00:59:30",29220,4.247,169.2,4.062,0.15,20.39,108.6614,21.46,22.41,46.58,0,110.9,13.19,22.28,131.2
"2010-07-31 01:00:00",29221,4.232,174.5,3.751,0.259,20.34,108.6388,21.4,22.37,46.95,0,110.9,13.19,22.23,136.5
"2010-07-31 01:00:30",29222,4.133,181.7,3.19,0.258,20.17,108.6171,21.34,22.33,48.08,0,110.9,13.19,22.17,143.7
"2010-07-31 01:01:00",29223,4.286,185.6,5.455,0.245,20.25,108.5962,21.29,22.28,47.85,0,110.9,13.19,22.12,147.6
"2010-07-31 01:01:30",29224,3.832,191.7,6.101,0.194,20.27,108.5712,21.23,22.22,48.29,0,110.9,13.2,22.05,153.7
"2010-07-31 01:02:00",29225,3.997,190.8,5.009,0.37,20.24,108.5651,21.21,22.19,48.47,0,110.9,13.19,22.04,152.8
"2010-07-31 01:02:30",29226,3.597,194.2,6.828,0.269,20.23,108.5386,21.14,22.15,48.74,0,110.9,13.2,21.97,156.2
"2010-07-31 01:03:00",29227,3.503,207.4,9.5,0.339,20.2,108.5341,21.13,22.11,49.01,0,110.9,13.2,21.96,169.4
"2010-07-31 01:03:30",29228,3.236,204.3,11.55,0.538,20.33,108.5206,21.1,22.08,48.69,0,110.9,13.2,21.92,166.3
"2010-07-31 01:04:00",29229,3.179,218.5,8.32,0.247,20.17,108.5094,21.07,22.06,49.53,0,110.9,13.2,21.89,180.5
"2010-07-31 01:04:30",29230,2.486,246,3.945,0.309,19.89,108.4892,21.01,22.01,50.96,0,110.9,13.19,21.84,208.0
"2010-07-31 01:05:00",29231,1.875,226.1,18.84,0.664,20.26,108.4692,20.96,21.95,49.91,0,110.9,13.2,21.79,188.1
"2010-07-31 01:05:30",29232,2.074,254.9,8.09,0.297,20.01,108.4582,20.94,21.92,50.93,0,110.9,13.2,21.76,216.9
"2010-07-31 01:06:00",29233,2.629,237.1,5.853,0.176,20.11,108.4345,20.87,21.88,50.94,0,110.9,13.2,21.70,199.1
"2010-07-31 01:06:30",29234,2.708,227.8,9.98,0.358,20.26,108.4352,20.88,21.87,50.18,0,110.9,13.2,21.70,189.8
"2010-07-31 01:07:00",29235,2.755,265.9,12.92,0.297,20.06,108.4345,20.87,21.85,51.49,0,110.9,13.2,21.70,227.9
"2010-07-31 01:07:30",29236,2.828,252.3,10.73,0.399,20.14,108.4191,20.83,21.82,51.47,0,110.9,13.19,21.66,214.3
"2010-07-31 01:08:00",29237,3.196,241.7,9.14,0.365,20.19,108.4067,20.8,21.79,51.21,0,110.9,13.19,21.63,203.7
"2010-07-31 01:08:30",29238,2.811,236.7,10.28,0.287,20.26,108.4061,20.8,21.78,51.21,0,110.9,13.19,21.63,198.7
"2010-07-31 01:09:00",29239,2.822,211.1,11.95,0.779,20.37,108.4239,20.85,21.78,50.44,0,110.9,13.19,21.67,173.1
"2010-07-31 01:09:30",29240,2.739,224.1,7.366,0.563,20.35,108.4345,20.87,21.79,50.65,0,110.9,13.19,21.70,186.1
"2010-07-31 01:10:00",29241,2.953,233.2,7.788,0.288,20.34,108.4345,20.87,21.77,50.65,0,110.9,13.19,21.70,195.2
"2010-07-31 01:10:30",29242,3.13,238.2,5.886,0.191,20.33,108.4354,20.88,21.79,50.69,0,110.9,13.19,21.70,200.2
"2010-07-31 01:11:00",29243,3.516,255.8,4.195,0.543,20.15,108.436,20.88,21.81,51.71,0,110.9,13.19,21.70,217.8
"2010-07-31 01:11:30",29244,3.683,268.8,4.499,0.315,19.93,108.4146,20.82,21.77,53.09,0,110.9,13.19,21.65,230.8
"2010-07-31 01:12:00",29245,3.712,273.8,4.257,0.147,19.91,108.3786,20.73,21.71,54.13,0,110.9,13.19,21.56,235.8
"2010-07-31 01:12:30",29246,3.882,270,4.366,0.411,20.09,108.3438,20.64,21.65,53.77,0,110.9,13.19,21.47,232.0
"2010-07-31 01:13:00",29247,4.244,269.8,2.257,0.245,20.08,108.3345,20.62,21.63,53.66,0,110.9,13.19,21.44,231.8
"2010-07-31 01:13:30",29248,4.151,272.3,2.232,0.196,20.1,108.3283,20.6,21.6,54.03,0,110.9,13.19,21.43,234.3
"2010-07-31 01:14:00",29249,4.331,274.8,2.388,0.252,20.1,108.3064,20.55,21.56,54.44,0,110.9,13.2,21.37,236.8
"2010-07-31 01:14:30",29250,4.506,278.4,2.78,0.212,20.09,108.3002,20.53,21.54,54.62,0,110.9,13.2,21.35,240.4
"2010-07-31 01:15:00",29251,4.479,271.6,5.011,0.355,20.3,108.3005,20.53,21.51,54.04,0,110.9,13.2,21.35,233.6
"2010-07-31 01:15:30",29252,3.709,268.2,7.772,0.253,20.32,108.3026,20.54,21.5,53.8,0,110.9,13.2,21.36,230.2
"2010-07-31 01:16:00",29253,3.954,273.2,3.019,0.317,20.14,108.3014,20.53,21.51,54.58,0,110.9,13.2,21.36,235.2
"2010-07-31 01:16:30",29254,3.774,252.3,8.22,0.262,20.29,108.3029,20.54,21.49,53.74,0,110.9,13.2,21.36,214.3
"2010-07-31 01:17:00",29255,3.711,251.1,5.054,0.197,20.18,108.3029,20.54,21.49,54.15,0,110.9,13.2,21.36,213.1
"2010-07-31 01:17:30",29256,3.943,243.3,2.953,0.293,20.28,108.3077,20.55,21.48,53.06,0,110.9,13.2,21.37,205.3
"2010-07-31 01:18:00",29257,3.577,248.2,3.231,0.423,20.23,108.3177,20.57,21.5,53.73,0,110.9,13.2,21.40,210.2
"2010-07-31 01:18:30",29258,4.26,255.3,7.375,0.761,20.34,108.334,20.62,21.49,53.1,0,110.9,13.2,21.44,217.3
"2010-07-31 01:19:00",29259,4.387,243.2,7.742,0.416,20.29,108.3394,20.63,21.5,53.02,0,110.9,13.2,21.45,205.2
"2010-07-31 01:19:30",29260,3.617,235,4.48,0.18,20.27,108.34,20.63,21.51,53.07,0,110.9,13.2,21.46,197.0
"2010-07-31 01:20:00",29261,3.948,241.7,3.953,0.333,20.39,108.3435,20.64,21.52,52.17,0,110.9,13.2,21.47,203.7
"2010-07-31 01:20:30",29262,4.72,241.4,6.223,0.406,20.63,108.37,20.71,21.54,51.11,0,110.9,13.2,21.53,203.4
"2010-07-31 01:21:00",29263,4.135,235.6,9.45,0.629,20.52,108.3846,20.75,21.58,51.22,0,110.9,13.2,21.57,197.6
"2010-07-31 01:21:30",29264,3.605,237.1,5.499,0.455,20.44,108.4103,20.81,21.62,50.95,0,110.9,13.2,21.64,199.1
"2010-07-31 01:22:00",29265,4.912,245.9,3.716,0.302,20.26,108.4108,20.81,21.65,51.99,0,110.9,13.2,21.64,207.9
"2010-07-31 01:22:30",29266,4.425,240.7,2.023,0.145,20.29,108.413,20.82,21.67,51.87,0,110.9,13.2,21.64,202.7
"2010-07-31 01:23:00",29267,4.518,244.4,1.933,0.106,20.32,108.4121,20.82,21.66,51.96,0,110.9,13.2,21.64,206.4
"2010-07-31 01:23:30",29268,4.753,244.6,1.151,0.165,20.28,108.4124,20.82,21.67,52.04,0,110.9,13.2,21.64,206.6
"2010-07-31 01:24:00",29269,4.333,240.8,5.537,0.08,20.27,108.4148,20.82,21.68,52.06,0,110.9,13.2,21.65,202.8
"2010-07-31 01:24:30",29270,4.175,238.5,2.262,0.283,20.31,108.4148,20.82,21.67,52.03,0,110.9,13.2,21.65,200.5
"2010-07-31 01:25:00",29271,4.652,242.9,4.113,0.159,20.3,108.4192,20.84,21.68,52.19,0,110.9,13.2,21.66,204.9
"2010-07-31 01:25:30",29272,4.176,240.8,3.396,0.13,20.37,108.42,20.84,21.67,51.85,0,110.9,13.2,21.66,202.8
"2010-07-31 01:26:00",29273,4.568,246.9,4.567,0.216,20.29,108.4255,20.85,21.69,51.95,0,110.9,13.2,21.68,208.9
"2010-07-31 01:26:30",29274,4.821,253.6,1.922,0.175,20.24,108.4143,20.82,21.68,52.73,0,110.9,13.19,21.65,215.6
"2010-07-31 01:27:00",29275,4.937,248.6,3.201,0.18,20.36,108.4009,20.79,21.66,52.16,0,110.9,13.2,21.61,210.6
"2010-07-31 01:27:30",29276,5.204,252.1,1.694,0.128,20.24,108.397,20.78,21.65,52.56,0,110.9,13.19,21.60,214.1
"2010-07-31 01:28:00",29277,4.842,244.1,3.695,0.147,20.35,108.3948,20.77,21.65,52.13,0,110.9,13.2,21.60,206.1
"2010-07-31 01:28:30",29278,4.81,241.3,1.162,0.121,20.29,108.3948,20.77,21.65,51.75,0,110.9,13.2,21.60,203.3
"2010-07-31 01:29:00",29279,4.933,245.6,1.885,0.118,20.35,108.3979,20.78,21.65,51.83,0,110.9,13.19,21.61,207.6
"2010-07-31 01:29:30",29280,5.061,245.8,1.71,0.065,20.44,108.4001,20.79,21.66,51.77,0,110.9,13.2,21.61,207.8
"2010-07-31 01:30:00",29281,5.239,250.4,1.277,0.059,20.31,108.4045,20.8,21.65,51.98,0,110.9,13.2,21.62,212.4
"2010-07-31 01:30:30",29282,5.289,249.6,0.918,0.067,20.35,108.4161,20.83,21.67,51.84,0,110.9,13.2,21.65,211.6
"2010-07-31 01:31:00",29283,5.224,250.3,1.944,0.171,20.33,108.4248,20.85,21.68,52.39,0,110.9,13.2,21.67,212.3
"2010-07-31 01:31:30",29284,5.699,250.8,2.712,0.244,20.53,108.4231,20.85,21.68,51.85,0,110.9,13.2,21.67,212.8
"2010-07-31 01:32:00",29285,5.45,243.5,3.658,0.223,20.65,108.4346,20.87,21.7,50.98,0,110.9,13.2,21.70,205.5
"2010-07-31 01:32:30",29286,5.943,247.3,3.316,0.217,20.54,108.4429,20.9,21.72,51.2,0,110.9,13.2,21.72,209.3
"2010-07-31 01:33:00",29287,5.963,245.4,4.537,0.313,20.6,108.4612,20.94,21.74,51.02,0,110.9,13.2,21.77,207.4
"2010-07-31 01:33:30",29288,5.473,246.8,6.274,0.391,20.63,108.4699,20.97,21.76,50.54,0,110.9,13.2,21.79,208.8
"2010-07-31 01:34:00",29289,5.181,242.1,4.23,0.341,20.56,108.4755,20.98,21.78,50.58,0,110.9,13.2,21.80,204.1
"2010-07-31 01:34:30",29290,5.062,242.1,4.975,0.314,20.52,108.4947,21.03,21.8,50.59,0,110.9,13.2,21.85,204.1
"2010-07-31 01:35:00",29291,4.755,249.7,6.161,0.461,20.53,108.5049,21.06,21.83,50.57,0,110.9,13.2,21.88,211.7
"2010-07-31 01:35:30",29292,5.075,246,3.874,0.515,20.47,108.5049,21.06,21.85,50.99,0,110.9,13.2,21.88,208.0
"2010-07-31 01:36:00",29293,6.017,252.9,4.775,0.313,20.41,108.5049,21.06,21.84,51.72,0,110.9,13.2,21.88,214.9
"2010-07-31 01:36:30",29294,5.449,254.2,2.8,0.449,20.41,108.4829,21,21.84,52.08,0,110.9,13.21,21.82,216.2
"2010-07-31 01:37:00",29295,5.132,252.1,2.549,0.292,20.41,108.4711,20.97,21.83,52.05,0,110.9,13.21,21.79,214.1
"2010-07-31 01:37:30",29296,5.615,249.4,3.81,0.367,20.42,108.4711,20.97,21.83,51.93,0,110.9,13.21,21.79,211.4
"2010-07-31 01:38:00",29297,5.808,249.3,1.817,0.288,20.39,108.4711,20.97,21.81,52.01,0,110.9,13.21,21.79,211.3
"2010-07-31 01:38:30",29298,5.669,250.1,2.623,0.229,20.39,108.4711,20.97,21.81,52.04,0,110.9,13.21,21.79,212.1
"2010-07-31 01:39:00",29299,4.933,245.4,3.327,0.262,20.31,108.4543,20.93,21.79,52.56,0,110.9,13.21,21.75,207.4
"2010-07-31 01:39:30",29300,4.741,242,4.246,0.343,20.42,108.4436,20.9,21.79,52.02,0,110.9,13.21,21.72,204.0
"2010-07-31 01:40:00",29301,5.102,247.3,3.159,0.397,20.31,108.441,20.89,21.8,52.55,0,110.9,13.21,21.72,209.3
"2010-07-31 01:40:30",29302,5.259,247.8,3.433,0.08,20.28,108.4374,20.88,21.78,53.26,0,110.9,13.21,21.71,209.8
"2010-07-31 01:41:00",29303,4.882,246.9,4.558,0.422,20.35,108.436,20.88,21.75,52.77,0,110.9,13.21,21.70,208.9
"2010-07-31 01:41:30",29304,4.313,250.5,2.903,0.141,20.2,108.4118,20.82,21.74,54.11,0,110.9,13.2,21.64,212.5
"2010-07-31 01:42:00",29305,4.583,253.2,2.555,0.157,20.18,108.4008,20.79,21.72,54.62,0,110.9,13.2,21.61,215.2
"2010-07-31 01:42:30",29306,4.848,258.4,2.854,0.202,20.15,108.3721,20.71,21.67,55.39,0,110.9,13.2,21.54,220.4
"2010-07-31 01:43:00",29307,5.279,260.4,2.716,0.356,20.24,108.3519,20.66,21.62,55.56,0,110.9,13.2,21.49,222.4
"2010-07-31 01:43:30",29308,5.6,266.4,1.838,0.181,20.17,108.3361,20.62,21.6,55.73,0,110.9,13.2,21.45,228.4
"2010-07-31 01:44:00",29309,5.325,265.5,2.931,0.203,20.19,108.3167,20.57,21.56,55.98,0,110.9,13.2,21.40,227.5
"2010-07-31 01:44:30",29310,4.913,261.3,3.716,0.195,20.15,108.3024,20.54,21.53,56.57,0,110.9,13.2,21.36,223.3
"2010-07-31 01:45:00",29311,5.305,260,2.605,0.139,20.2,108.2934,20.51,21.49,56.38,0,110.9,13.2,21.34,222.0
"2010-07-31 01:45:30",29312,5.538,261.9,1.665,0.146,20.15,108.2712,20.46,21.45,56.18,0,110.9,13.2,21.28,223.9
"2010-07-31 01:46:00",29313,5.709,263,2.458,0.142,20.13,108.2686,20.45,21.42,56.36,0,110.9,13.2,21.27,225.0
"2010-07-31 01:46:30",29314,5.736,260.4,1.204,0.126,20.21,108.2686,20.45,21.4,55.9,0,110.9,13.2,21.27,222.4
"2010-07-31 01:47:00",29315,6.05,265,1.281,0.152,20.21,108.2686,20.45,21.4,56.15,0,110.9,13.2,21.27,227.0
"2010-07-31 01:47:30",29316,6.134,260.5,1.62,0.156,20.25,108.2686,20.45,21.38,55.73,0,110.9,13.21,21.27,222.5
"2010-07-31 01:48:00",29317,6.028,261.5,1.657,0.26,20.24,108.2686,20.45,21.37,55.55,0,110.9,13.21,21.27,223.5
"2010-07-31 01:48:30",29318,6.002,259.6,2.893,0.16,20.39,108.2686,20.45,21.37,54.98,0,110.9,13.21,21.27,221.6
"2010-07-31 01:49:00",29319,5.335,243.2,4.792,0.616,20.8,108.3027,20.54,21.39,51.76,0,110.9,13.21,21.36,205.2
"2010-07-31 01:49:30",29320,4.32,251.7,4.663,0.393,20.72,108.3539,20.67,21.45,51.55,0,110.9,13.21,21.49,213.7